{"data":{"norad_id":41167,"epoch":"2026-09-20T05:35:41.670816Z","epoch_age_seconds":37510,"freshness":"FRESH","line1":"1 41167U 15077B   26263.23312119  .00002934  00000+0  87874-4 0  9995","line2":"2 41167  14.9798 278.8676 0008181 141.4519 218.6388 15.23617468595611","mean_motion":15.23617468,"eccentricity":0.0008181,"inclination_deg":14.9798,"raan_deg":278.8676,"arg_perigee_deg":141.4519,"mean_anomaly_deg":218.6388,"bstar":8.7874e-5,"rev_number":59561,"period_min":94.511911962406,"perigee_km":489.31718594648,"apogee_km":500.56291461615,"semimajor_km":6873.0770502813,"source":"CELESTRAK","updated_at":"2026-09-20T09:00:33.965655Z"}}